SCP
0 0 0 0 0 0 0 0 0 0 0 0 0 0 0 0 0 0 0 0 0 0 0 0 0 0 0 0 0 0 0 0 0 0 0 0 0 0 0 0 0 0 0
0 0 0 0 0 0 0 0 0 0 0 0 0 0 0 0 0 0 0 0 0 0 0 0 0 0 0 0 0 0 0 0 0 0 0 0 0 0 0 0 0 0 0
0 0 0 0 0 0 0 0 0 0 0 0 0 0 0 0 0 0 0 0 0 0 0 0 0 0 0 0 0 0 0 0 0 0 0 0 0 0 0 0 0 0 0
0 0 0 0 -0 -0 0 0 0 0 0 0 0 0 0 0 0 0 0 0 0 0 0 0 0 0 0 0 0 0 0 0 0 0 0 0 0 0 0 0 0 0 0
0 0 0 0 0 0 0 0 0 0 0 0 0 0 0 0 0 0 0 0 0 0 0 0 0 0 0 0 0 0 0 0 0 0 0 0 0 0 0 0 0 0 0
0 0 0 0 0 0 0 0 0 0 0 0 0 0 0 0 0 0 0 0 0 0 0 0 0 0 0 0 0 0 0 0 0 0 0 0 0 0 0 0 0 0 0
0 0 0 0 0 0 0 0 0 0 0 0 0 0 0 0 0 0 0 0 0 0 0 0 0 0 0 0 0 0 0 0 0 0 0 0 0 0 0 -0 0 0 0
0 0 0 0 0 0 0 0 0 0 0 0 0 0 0 0 0 0 0 0 0 0 0 0 0 0 0 0 0 0 0 0 0 0 0 0 0 0 0 0 0 0 0
0 0 0 0 0 0 0 0 0 0 0 0 0 0 0 0 0 0 0 0 0 0 0 0 0 0 0 0 0 0 0 0 0 0 0 0 0 0 0 0 0 0 0
0 0 0 0 0 0 0 0 0 0 0 0 0 0 0 0 0 0 0 0 0 0 0 0 0 0 0 0 0 0 0 0 0 0 0 0 0 0 0 0 0 0 0
0 0 0 0 0 0 0 0 0 0 0 0 0 0 0 0 0 0 0 0 0 0 0 0 0 0 0 0 0 0 0 0 0 0 0 0 0 0 0 0 0 0 0
0 0 0 0 0 0 0 0 -0 0 0 0 0 0 0 0 0 0 0 0 0 0 0 0 0 0 0 0 0 -0 -0 -0 0 0 0 0 0 0 0 0 0 0 0
0 0 0 0 0 0 0 0 0 0 0 0 0 0 0 0 0 0 0 0 0 0 0 0 0 0 0 0 0 -0 -0 -0 0 0 0 0 0 0 0 0 0 0 0
0 0 0 0 0 0 0 -0 -0 -0 0 0 0 0 0 0 0 0 0 0 0 0 0 0 0 0 0 0 0 0 -0 0 0 0 0 0 0 0 0 0 0 0 0
0 0 0 0 0 0 0 -0 -0 -0 0 0 0 0 0 0 0 0 0 0 0 0 0 0 0 0 0 0 0 0 0 0 0 0 0 0 0 0 -0 0 0 0 0
0 0 0 -0 -0 -0 -0 -0 -0 -0 0 0 0 0 0 0 0 0 0 0 -0 -0 0 0 0 0 0 0 0 0 0 0 0 0 0 0 0 0 -0 -0 -0 -0 -0
0 0 -0 -0 -0 -0 -0 0 0 0 0 0 0 0 0 0 0 0 0 0 0 -0 0 0 0 0 0 0 0 0 0 0 0 0 0 0 0 -0 -0 -0 -0 -0 0
0 0 0 -0 -0 -0 -0 0 0 0 0 0 0 -0 0 0 0 0 0 0 0 -0 0 0 0 0 0 0 0 0 0 0 0 0 0 0 0 0 -0 -0 -0 0 0
0 0 0 0 -0 0 0 0 0 0 0 0 0 -0 0 0 0 0 0 0 0 0 0 0 0 0 0 0 -0 0 0 0 0 0 0 0 0 0 0 -0 0 0 0
0 0 0 0 0 0 0 0 0 0 0 0 0 -0 0 0 0 0 0 0 0 0 0 0 0 0 0 -0 -0 0 0 0 0 0 0 0 0 0 0 0 0 0 0
0 0 0 0 0 0 0 0 0 0 0 0 0 0 0 0 0 0 0 0 0 0 0 0 0 0 0 0 0 0 0 0 0 0 0 0 0 0 0 0 0 0 0
0 0 0 0 -0 0 0 0 0 0 0 0 0 0 0 0 0 0 0 0 0 0 0 0 -0 -0 0 0 0 0 0 0 0 0 0 0 0 0 0 0 0 0 0
0 0 0 0 0 0 0 0 0 0 0 0 0 0 0 0 0 0 0 -0 -0 -0 -0 -0 -0 -0 0 0 0 0 0 0 0 0 0 0 0 0 0 0 0 0 0
0 0 0 0 0 0 0 0 0 0 0 0 0 0 0 0 0 0 -0 -0 -0 -0 0 0 0 0 0 0 0 0 0 0 0 0 0 0 0 0 0 0 0 0 0
0 0 0 0 0 0 0 0 0 0 0 0 0 0 0 0 0 0 0 -0 -0 -0 0 0 0 0 0 0 0 0 0 0 0 0 0 0 0 0 0 0 0 0 0
0 0 0 0 0 0 0 0 0 0 0 0 0 0 0 0 0 0 0 0 0 0 0 0 0 0 0 0 0 0 0 0 0 0 0 0 0 0 0 0 0 0 0
Wind_Speed
11 10 10 9 9 9 8 8 7 7 7 8 8 8 8 8 7 6 6 6 6 6 5 5 5 4 4 4 3 3 3 1 0 3 3 3 4 5 6 5 5 5 6
10 10 9 9 8 8 8 7 7 7 7 7 7 7 7 7 6 6 6 5 5 5 4 4 4 3 4 3 3 3 2 1 0 3 3 3 4 5 5 5 5 5 5
9 9 9 8 8 7 7 6 7 7 7 7 7 7 6 6 6 6 5 5 5 4 3 3 3 3 3 2 2 2 2 2 1 1 4 3 3 3 4 5 5 4 6
8 8 8 7 7 6 6 6 6 6 7 6 6 6 5 5 5 5 5 5 5 4 4 3 2 1 1 2 2 3 2 3 3 2 3 4 3 4 3 4 5 5 6
7 7 6 6 6 6 6 6 6 6 6 5 5 4 4 4 4 4 4 5 5 5 5 4 3 1 1 2 2 3 2 2 3 3 3 3 4 4 4 3 4 5 6
6 6 5 5 6 5 5 5 5 5 5 5 5 4 4 3 5 7 5 4 4 4 4 5 4 2 4 6 8 7 5 3 3 2 3 4 6 5 4 3 3 3 5
5 5 4 4 5 4 4 4 4 3 3 4 3 3 3 3 6 8 8 3 3 3 4 3 3 2 3 4 7 9 8 9 6 4 4 5 5 5 4 5 4 3 5
4 4 4 4 4 4 4 3 2 2 2 2 2 2 1 2 5 7 8 5 4 4 4 3 2 3 3 4 5 6 6 6 7 4 5 7 7 7 5 4 4 4 6
4 4 4 4 4 3 3 2 1 1 1 1 2 3 1 1 3 6 7 4 4 5 5 4 3 3 5 6 5 6 8 7 7 8 9 10 12 12 7 2 3 2 4
4 4 4 4 3 3 2 1 0 1 1 2 2 2 2 1 2 4 6 3 4 5 5 5 6 5 8 8 4 4 6 7 7 10 10 10 8 8 7 4 4 2 2
4 4 3 3 2 2 1 1 1 1 1 1 1 1 1 1 2 5 6 2 2 4 4 5 5 10 12 11 6 4 7 8 6 6 6 6 6 5 5 3 4 4 3
3 3 2 2 2 2 2 2 2 2 2 2 1 1 1 1 2 5 8 7 4 2 4 5 7 13 13 10 6 6 9 6 3 4 4 5 4 5 5 5 4 4 5
3 2 1 2 2 2 3 3 3 3 3 2 2 1 2 2 3 6 8 8 8 3 4 9 11 12 9 6 8 10 7 3 3 3 4 4 4 5 5 4 4 4 4
2 1 0 1 2 2 2 3 3 2 2 2 2 1 1 2 3 4 4 5 7 6 6 9 11 9 7 7 7 6 4 3 3 3 4 4 4 4 3 3 3 3 3
1 1 1 1 2 2 2 1 2 2 3 3 2 1 1 1 3 5 4 4 5 5 5 4 4 4 5 5 5 5 5 5 5 4 4 4 5 5 4 3 2 2 2
1 1 1 1 2 2 2 1 1 1 2 3 3 3 2 3 6 8 9 10 10 6 2 3 3 4 4 4 4 5 4 5 5 4 4 5 5 5 5 4 3 2 2
2 2 1 1 2 3 3 3 1 2 3 3 4 4 4 6 7 8 10 11 8 5 3 3 3 3 4 4 4 4 4 4 4 5 5 5 5 5 5 5 4 3 3
2 2 2 2 2 3 3 3 3 2 1 3 4 5 6 7 8 8 7 6 5 5 3 3 3 3 3 4 4 4 4 5 5 5 5 6 6 5 5 5 5 4 3
2 1 1 1 2 2 2 2 2 2 1 1 2 3 4 5 5 5 3 2 2 2 3 3 3 3 3 3 3 4 4 4 5 5 5 6 6 5 5 5 5 6 4
2 3 3 2 1 2 2 2 2 2 1 1 0 2 2 3 3 3 3 2 1 2 2 3 3 3 3 3 3 4 4 5 6 5 6 6 6 5 6 7 6 5 4
2 1 2 2 2 2 2 2 2 2 2 1 1 2 1 1 1 1 2 2 1 1 2 2 2 3 3 3 3 4 5 5 5 5 6 6 6 6 6 6 6 5 4
2 2 2 3 2 2 2 2 2 2 2 1 1 1 1 1 1 1 1 2 1 1 1 2 2 2 2 2 3 3 4 5 6 6 6 6 6 6 6 6 6 5 4
2 2 2 2 3 4 3 2 2 2 2 1 1 0 0 0 0 1 1 2 1 1 2 2 2 2 2 2 2 2 3 5 5 6 6 7 6 6 6 6 6 5 4
2 2 3 3 3 3 3 3 2 2 2 2 1 1 1 0 0 1 1 1 1 2 2 2 2 3 4 4 3 3 4 5 6 5 7 6 7 6 5 5 5 5 4
1 2 3 4 4 4 3 3 2 2 2 2 1 1 1 1 0 0 1 1 2 2 3 3 2 3 5 6 6 6 8 9 8 6 5 5 5 6 5 5 4 4 3
1 3 4 4 4 4 4 3 3 3 2 2 2 1 1 1 1 0 1 1 2 2 3 2 3 4 5 5 7 8 9 10 10 10 6 4 5 5 6 4 5 4 5
Wind_Direction
81 83 85 83 84 84 84 82 81 77 75 77 74 70 64 56 51 53 51 50 52 43 40 48 44 42 36 27 29 35 40 79 329 292 284 300 319 325 325 319 308 303 304
87 86 84 82 80 80 80 79 79 78 75 78 77 72 68 61 51 49 44 45 49 44 36 39 30 38 35 24 29 24 12 24 55 307 304 315 315 313 313 315 319 320 308
89 89 86 83 81 80 79 77 77 80 79 81 81 75 67 60 52 44 42 42 37 33 30 30 16 39 24 7 11 1 339 347 345 304 298 297 296 310 322 317 315 310 312
92 91 88 86 85 83 79 76 79 85 87 86 86 81 71 58 48 35 34 36 23 13 6 2 357 20 343 331 331 324 321 326 321 314 300 302 299 302 315 313 320 320 313
95 92 91 92 88 81 76 77 78 82 92 96 93 81 70 61 41 35 24 24 12 0 352 348 339 347 4 342 324 305 307 303 309 309 302 306 303 313 313 299 305 310 308
97 97 96 92 88 85 84 82 79 80 86 93 94 89 69 52 33 32 30 14 359 352 341 338 339 6 2 356 346 335 321 297 293 283 286 294 289 285 280 285 299 324 312
105 105 101 99 97 95 94 85 86 90 96 103 110 103 84 30 26 21 18 19 356 340 329 325 331 339 352 337 335 334 327 316 298 252 261 272 273 274 281 292 286 274 266
109 110 109 109 104 99 95 97 102 104 110 124 135 137 117 11 19 19 17 21 9 351 335 314 304 302 303 324 325 323 315 307 296 279 250 262 265 266 247 246 259 282 277
107 109 110 108 104 104 102 105 113 113 118 151 160 164 157 322 348 14 26 11 2 348 338 336 320 294 298 318 320 318 317 310 304 302 292 285 281 279 267 237 270 285 302
111 111 110 106 108 114 130 148 140 141 156 158 160 186 188 238 320 2 23 12 357 343 336 333 323 308 306 311 292 292 304 303 316 324 323 322 312 306 300 228 222 234 267
116 105 100 106 123 139 122 58 75 84 92 111 141 215 216 232 329 357 9 10 337 327 325 320 313 317 316 313 297 253 262 279 296 301 303 308 312 312 306 280 226 206 220
104 98 94 96 107 111 91 52 52 64 64 58 66 25 349 351 20 11 14 14 2 315 306 306 308 317 322 326 321 305 306 308 301 313 319 315 313 312 306 300 283 247 223
102 98 86 74 81 92 96 81 59 57 64 57 71 53 5 4 4 10 7 0 357 336 299 305 314 328 340 343 337 341 346 347 335 327 320 302 289 289 299 313 319 318 301
131 153 118 101 86 84 89 96 92 82 77 74 75 70 21 343 342 344 341 337 340 338 330 323 331 348 3 352 347 349 350 335 322 308 302 300 308 322 325 324 319 331 340
173 223 205 156 146 134 113 115 133 161 168 152 157 158 144 315 304 321 325 321 319 311 322 336 356 354 353 349 344 343 346 355 353 338 334 333 332 333 326 323 320 328 331
193 227 216 183 171 158 146 69 23 179 165 159 177 185 235 256 301 323 327 325 324 322 1 1 345 342 342 344 344 343 348 352 346 345 347 344 336 334 330 327 332 330 312
191 212 204 187 176 177 174 174 223 312 303 284 268 264 268 289 309 321 329 333 351 30 44 2 348 344 345 352 357 358 348 339 342 350 350 344 339 337 338 334 332 331 320
195 206 191 183 173 182 187 191 192 203 277 304 290 273 283 299 312 321 333 1 14 19 17 2 357 355 358 2 2 359 350 348 350 347 343 343 343 338 336 334 328 319 311
182 182 170 159 158 169 169 164 168 179 198 265 320 324 317 327 344 355 21 56 22 354 356 4 7 7 5 6 4 359 354 347 341 338 339 338 337 335 332 329 323 322 323
203 200 175 156 148 147 146 139 139 147 150 146 281 290 337 22 13 357 14 27 24 359 1 13 13 19 14 10 5 359 352 346 342 339 334 333 331 330 327 327 325 321 312
200 218 176 142 154 159 152 151 158 157 161 187 250 258 178 85 350 341 353 2 1 360 14 32 29 20 15 9 4 359 353 338 332 329 327 327 327 326 323 322 323 324 321
184 188 169 162 164 163 159 157 154 153 160 170 258 301 36 76 37 352 341 333 331 6 57 85 60 31 18 10 3 354 343 333 329 329 325 322 321 320 323 326 329 330 335
178 180 170 165 160 156 146 145 151 156 162 170 180 186 50 65 344 333 325 321 342 28 64 81 70 29 11 8 3 355 333 316 307 304 308 312 315 315 317 319 326 335 341
180 172 169 165 157 152 154 157 161 163 163 169 173 178 193 196 270 323 337 341 18 62 88 84 68 40 24 6 348 337 318 303 295 286 282 285 295 303 312 320 329 341 345
177 174 166 161 158 161 163 162 164 169 169 176 183 184 183 178 207 297 350 13 59 90 102 91 53 27 14 4 354 340 330 325 318 307 286 276 291 306 317 324 336 347 353
174 163 155 154 156 161 162 165 174 178 182 190 186 178 171 168 177 198 3 37 79 97 106 90 61 37 14 358 349 344 339 336 334 331 320 314 333 340 340 334 348 357 358